INTELSAT 33E DEB, 61988

Orbit data source: Space-Track

INTELSAT 33E DEB, 61988 is space debris in GEO originally from a launch on Wed, 24 Aug 2016 UTC launched from the French Guiana (FRGUI). Debris objects in space refer to the collection of defunct objects orbiting the Earth. Examples of debris include non-operational satellites, rocket bodies, and fragments generated from explosions, collisions, or faulty payload assembly.

Loading next visibility...
Identifier
61988, 2016-053E
Orbit
GEO
Country
Flag of UnknownUnknown / ITSO
Related business
Manufacturer
Boeing/ES
Mission
Spacecraft
Bus & Motor
Unknown
Mass
Unknown
Launch date (UTC)
2016-08-24 (9 years ago)
Launch vehicle
Unknown
Launch site
French Guiana (FRGUI)
Object type
Payload
Rocket body
Debris
Shape & HBR
Unknown shape, 1.1 m
Radar Cross Section
RCS unknown

Expand to show TLE details & history
Last TLE update: 2 days ago

TLE from 2 days ago
0 INTELSAT 33E DEB
1 61988U 16053E   25299.61946363  .00000123  00000-0  00000-0 0  9998
2 61988   1.1284 101.3234 0055035 117.5045 243.5633  0.99844303  3701
Epoch: 2025-10-26T14:52Z
TLE epoch observation values (Epoch: 2025-10-26T14:52:01.657Z)
Latitude
-0.00001°
Longitude
-156.45041°
Altitude
36,011.586 km
Speed
3.063 km/s
True Right ascension
06h 47m 09s
True Declination
0° 00' 00"
Sunlit
Object was in daylight at epoch
Visualization orbit readout
Latitude
Unknown
Longitude
Unknown
Altitude
Unknown
Speed
Unknown
Apparent Right ascension
Unknown
Apparent Declination
Unknown
Sunlit
N/A
Visualization observer readout
Local Sidereal Time
10:58:14
Azimuth
Unknown
Elevation
Unknown
Doppler factor
Unknown
Orbital elements
Apogee altitude
36,140.649 km
Perigee altitude
35,675.207 km
Semi-major axis
42,286.065 km
Eccentricity
0.0055
Inclination
1.1284°
RAAN
101.3234°
Arg. of periapsis
117.5045°
True anomaly
243.00033°
Mean anomaly
243.5633°
Eccentric anomaly
243.28164°
Mean motion
0.2496 °/min
Orbital period
1,442.3 mins
BSTAR
0
Loading maneuver chart data...
Computing Atmospheric mass density...
Loading historical data...
Loading historical data...
Loading historical data...
Loading historical data...
Loading historical data...
Loading historical data...
Loading historical data...

Documentation

Showing up to 5 results
|